(117382) = 1998 BF43 = 2000 SR374 = 2004 YE2

Discovered at Anderson Mesa on 2004-12-16 by LONEOS.

Orbit

Orbit type: Main Belt

Note: WebGL enabled browser required.

epoch2024-03-31.0
epoch JD2460400.5
perihelion date2023-04-01.81073
perihelion JD2460036.31073
argument of perihelion (°)352.82954
ascending node (°)115.90667
inclination (°)9.21795
eccentricity0.1377369
perihelion distance (AU)2.0291454
Tisserand w.r.t. Jupiter3.5
ΔV w.r.t. Earth (km/sec)9.3
semimajor axis (AU)2.3532787
mean anomaly (°)99.43085
mean daily motion (°/day)0.27301970
aphelion distance (AU)2.677
period (years)3.61
P-vector [x]-0.32266160
P-vector [y]0.87616982
P-vector [z]0.35807252
Q-vector [x]-0.93548217
Q-vector [y]-0.35279157
Q-vector [z]0.02027845
absolute magnitude16.43
phase slope0.15
uncertainty0
referenceE2024-H23
observations used879
oppositions16
arc length (days)9581
first opposition used1998
last opposition used2024
residual rms (arc-secs)0.68
perturbers coarse indicatorM-v
perturbers precise indicator003Ek
first observation date used1998-01-23.0
last observation date used2024-04-17.0
computer nameMPCLINUX
JD of orbit computation2456937.270370
perihelion JD uncertainty (days)6.7455E-05
argument of perihelion uncertainty (°)2.8975E-05
ascending node uncertainty (°)2.3907E-05
inclination uncertainty (°)3.3915E-06
eccentricity uncertainty 2.7643E-08
perihelion distance uncertainty (AU)6.4250E-08
Minimum Orbit Intersection Distances (in AU)
for orbit epoch: 2460400.5, reference: E2024-H23
Mercury1.71195
Venus1.31175
Earth1.04663
Mars0.39709
Jupiter2.43115
Saturn6.99015
Uranus16.2609
Neptune27.457

Observations

906 total observations over interval: 1998 01 23.25066 – 2024 03 18.635885
These data are available for download (format description).

Date (UT) J2000 RA J2000 Dec Magn Location Ref
1998 01 23.25066 07 41 29.34 +21 59 21.5 18.6 V 691 – Steward Observatory, Kitt Peak-Spacewatch MPS 477
1998 01 23.27304 07 41 27.97 +21 59 33.8 18.7 V 691 – Steward Observatory, Kitt Peak-Spacewatch MPS 477
1998 01 23.29558 07 41 26.58 +21 59 46.1 18.6 V 691 – Steward Observatory, Kitt Peak-Spacewatch MPS 477
1998 01 25.27132 07 39 32.73 +22 17 36.2 18.6   704 – Lincoln Laboratory ETS, New Mexico MPS 477
1998 01 25.31488 07 39 30.18 +22 17 58.1 19.0   704 – Lincoln Laboratory ETS, New Mexico MPS 477
1998 01 25.33643 07 39 28.86 +22 18 11.7   704 – Lincoln Laboratory ETS, New Mexico MPS 477
1998 01 25.35775 07 39 27.51 +22 18 21.0 18.5   704 – Lincoln Laboratory ETS, New Mexico MPS 477
2000 09 23.33532 00 58 57.12 -09 45 40.8 19.1 R 699 – Lowell Observatory-LONEOS MPS 125473
2000 09 23.35076 00 58 56.37 -09 45 50.7   699 – Lowell Observatory-LONEOS MPS 125473
2000 09 23.36620 00 58 55.44 -09 45 56.5   699 – Lowell Observatory-LONEOS MPS 125473
2000 09 23.38161 00 58 54.74 -09 46 04.0   699 – Lowell Observatory-LONEOS MPS 125473
2000 09 26.33862 00 56 24.913 -10 10 46.32 19.68 V 645 – Apache Point-Sloan Digital Sky Survey MPS 121120
2000 09 26.338620 00 56 24.912 -10 10 46.30 19.67 V 645 – Apache Point-Sloan Digital Sky Survey MPS 121120
2000 09 26.342092 00 56 24.724 -10 10 47.99 20.31   645 – Apache Point-Sloan Digital Sky Survey MPS 121120
2000 09 27.389730 00 55 29.880 -10 19 19.37 19.65 V 645 – Apache Point-Sloan Digital Sky Survey MPS 121120
2000 09 27.393202 00 55 29.691 -10 19 21.01 20.31   645 – Apache Point-Sloan Digital Sky Survey MPS 121120
2002 03 12.329650 13 06 15.021 +09 00 35.00 19.47 V 645 – Apache Point-Sloan Digital Sky Survey MPS 125473
2002 03 12.333122 13 06 14.873 +09 00 36.90 20.21   645 – Apache Point-Sloan Digital Sky Survey MPS 125473
2002 03 20.28181 13 00 12.49 +10 12 25.7 19.4   704 – Lincoln Laboratory ETS, New Mexico MPS 125473
2002 03 20.29714 13 00 11.75 +10 12 34.6 19.5   704 – Lincoln Laboratory ETS, New Mexico MPS 125473
2002 03 20.31059 13 00 11.08 +10 12 42.1 19.5   704 – Lincoln Laboratory ETS, New Mexico MPS 125473
2002 03 20.32534 13 00 10.24 +10 12 49.0 19.6   704 – Lincoln Laboratory ETS, New Mexico MPS 125473
2002 03 20.34659 13 00 09.16 +10 13 00.5 19.4   704 – Lincoln Laboratory ETS, New Mexico MPS 125473
2002 04 12.13713 12 39 53.29 +12 39 38.8 19.4   644 – Palomar Mountain/NEAT MPS 125473
2002 04 12.15806 12 39 52.22 +12 39 43.3 19.3   644 – Palomar Mountain/NEAT MPS 125473
2002 04 12.17924 12 39 51.11 +12 39 48.1 19.2   644 – Palomar Mountain/NEAT MPS 125473
2002 04 16.25165 12 36 35.25 +12 51 51.8 18.5   704 – Lincoln Laboratory ETS, New Mexico MPS 125473
2002 04 16.26546 12 36 34.58 +12 51 53.7 19.3   704 – Lincoln Laboratory ETS, New Mexico MPS 125473
2002 04 16.29344 12 36 33.25 +12 51 58.2 19.1   704 – Lincoln Laboratory ETS, New Mexico MPS 125473
2002 04 16.30717 12 36 32.53 +12 52 00.8 19.1   704 – Lincoln Laboratory ETS, New Mexico MPS 125473
2002 05 06.15985 12 25 54.92 +12 43 05.5 20.3   644 – Palomar Mountain/NEAT MPS 125473
2002 05 06.18078 12 25 54.51 +12 43 01.5 20.3   644 – Palomar Mountain/NEAT MPS 125473
2002 05 06.20154 12 25 54.17 +12 42 57.9 20.6   644 – Palomar Mountain/NEAT MPS 125473
2004 12 16.20894 04 36 36.99 +10 51 52.8 18.2 R 699 – Lowell Observatory-LONEOS MPS 122871
2004 12 16.22595 04 36 35.98 +10 51 57.2   699 – Lowell Observatory-LONEOS MPS 122871
2004 12 16.24298 04 36 34.87 +10 52 02.1   699 – Lowell Observatory-LONEOS MPS 122871
2004 12 16.25998 04 36 33.79 +10 52 06.1   699 – Lowell Observatory-LONEOS MPS 122871
2004 12 17.51541 04 35 19.45 +10 57 46.4 19.2   608 – Haleakala-AMOS MPS 122871
2004 12 17.52637 04 35 18.79 +10 57 49.4 19.4   608 – Haleakala-AMOS MPS 122871
2004 12 17.53686 04 35 18.15 +10 57 52.1 19.5   608 – Haleakala-AMOS MPS 122871
2004 12 18.29014 04 34 35.11 +11 01 20.5 18.8   704 – Lincoln Laboratory ETS, New Mexico MPS 123601
2004 12 18.30500 04 34 34.21 +11 01 23.6 18.8   704 – Lincoln Laboratory ETS, New Mexico MPS 123601
2004 12 18.32364 04 34 33.07 +11 01 29.7 19.0   704 – Lincoln Laboratory ETS, New Mexico MPS 123601
2004 12 18.33759 04 34 32.26 +11 01 33.3 18.6   704 – Lincoln Laboratory ETS, New Mexico MPS 123601
2004 12 18.35112 04 34 31.48 +11 01 37.2 19.4   704 – Lincoln Laboratory ETS, New Mexico MPS 123601
2005 01 13.15006 04 19 37.99 +13 45 41.6 19.2   704 – Lincoln Laboratory ETS, New Mexico MPS 124783
2005 01 13.16346 04 19 37.85 +13 45 48.1 19.5   704 – Lincoln Laboratory ETS, New Mexico MPS 124783
2005 01 13.17674 04 19 37.72 +13 45 53.4 19.5   704 – Lincoln Laboratory ETS, New Mexico MPS 124783
2005 01 13.18988 04 19 37.65 +13 45 59.5 19.5   704 – Lincoln Laboratory ETS, New Mexico MPS 124783
2005 01 13.20303 04 19 37.41 +13 46 05.9 19.6   704 – Lincoln Laboratory ETS, New Mexico MPS 124783
2005 01 15.08585 04 19 27.79 +14 00 34.8 19.0 R 699 – Lowell Observatory-LONEOS MPS 124783
2005 01 15.10048 04 19 27.75 +14 00 41.6   699 – Lowell Observatory-LONEOS MPS 124783
2005 01 15.11510 04 19 27.67 +14 00 48.5   699 – Lowell Observatory-LONEOS MPS 124783
2005 01 15.12975 04 19 27.59 +14 00 54.6   699 – Lowell Observatory-LONEOS MPS 124783
2005 02 01.15607 04 23 56.77 +16 18 27.1 19.7 R 703 – Catalina Sky Survey MPS 125748
2005 02 01.16302 04 23 57.07 +16 18 30.3 19.5 R 703 – Catalina Sky Survey MPS 125748
2005 02 01.17000 04 23 57.25 +16 18 33.4 19.1 R 703 – Catalina Sky Survey MPS 125748
2005 02 01.17699 04 23 57.49 +16 18 36.1 19.9 R 703 – Catalina Sky Survey MPS 125748
2006 05 02.36780 16 17 36.88 -08 06 59.2 19.4 V G96 – Mt. Lemmon Survey MPS 171326
2006 05 02.37302 16 17 36.63 -08 06 58.1 19.5 V G96 – Mt. Lemmon Survey MPS 171326
2006 05 02.37812 16 17 36.34 -08 06 57.1 19.4 V G96 – Mt. Lemmon Survey MPS 171326
2006 05 02.38361 16 17 36.09 -08 06 56.1 19.5 V G96 – Mt. Lemmon Survey MPS 171326
2006 05 23.29489 15 57 34.08 -07 29 43.9 20.0 V 691 – Steward Observatory, Kitt Peak-Spacewatch MPS 172672
2006 05 23.31213 15 57 33.00 -07 29 43.2 19.8 V 691 – Steward Observatory, Kitt Peak-Spacewatch MPS 172672
2006 05 23.32943 15 57 31.89 -07 29 42.6 19.9 V 691 – Steward Observatory, Kitt Peak-Spacewatch MPS 172672
2006 06 20.18314 15 33 51.05 -08 05 20.6 20.4 V 691 – Steward Observatory, Kitt Peak-Spacewatch MPS 174450
2006 06 20.20345 15 33 50.29 -08 05 24.4 20.3 V 691 – Steward Observatory, Kitt Peak-Spacewatch MPS 174450
2006 06 20.22081 15 33 49.66 -08 05 27.9 20.4 V 691 – Steward Observatory, Kitt Peak-Spacewatch MPS 174450
2008 10 01.46496 08 32 41.10 +16 31 37.2 20.9 V G96 – Mt. Lemmon Survey MPS 258850
2008 10 01.46948 08 32 41.64 +16 31 36.0 20.5 V G96 – Mt. Lemmon Survey MPS 258850
2008 10 01.47397 08 32 42.14 +16 31 34.8 20.5 V G96 – Mt. Lemmon Survey MPS 258850
2008 10 01.47846 08 32 42.68 +16 31 33.2 20.8 V G96 – Mt. Lemmon Survey MPS 258850
2008 11 09.49115 09 43 23.93 +13 23 11.3 20.4 V 691 – Steward Observatory, Kitt Peak-Spacewatch MPS 265060
2008 11 09.50374 09 43 25.13 +13 23 07.8 20.5 V 691 – Steward Observatory, Kitt Peak-Spacewatch MPS 265060
2008 11 09.51634 09 43 26.25 +13 23 04.0 20.1 V 691 – Steward Observatory, Kitt Peak-Spacewatch MPS 265060
2008 12 07.48237 10 21 36.07 +12 08 06.1 20.1 V G96 – Mt. Lemmon Survey MPS 269021
2008 12 07.48906 10 21 36.50 +12 08 06.2 19.7 V G96 – Mt. Lemmon Survey MPS 269021
2008 12 07.49562 10 21 36.93 +12 08 05.7 20.0 V G96 – Mt. Lemmon Survey MPS 269021
2008 12 07.50218 10 21 37.33 +12 08 05.5 20.4 V G96 – Mt. Lemmon Survey MPS 269021
2008 12 29.40500 10 39 45.68 +12 42 32.0 20.1 V 703 – Catalina Sky Survey MPS 271442
2008 12 29.41221 10 39 45.90 +12 42 34.7 20.0 V 703 – Catalina Sky Survey MPS 271442
2008 12 29.41949 10 39 46.11 +12 42 36.5 19.8 V 703 – Catalina Sky Survey MPS 271442
2008 12 29.42681 10 39 46.26 +12 42 38.0 19.9 V 703 – Catalina Sky Survey MPS 271442
2008 12 31.38846 10 40 43.95 +12 51 11.8   704 – Lincoln Laboratory ETS, New Mexico MPS 406705
2008 12 31.40182 10 40 44.42 +12 51 14.0   704 – Lincoln Laboratory ETS, New Mexico MPS 406705
2008 12 31.41488 10 40 44.77 +12 51 16.5   704 – Lincoln Laboratory ETS, New Mexico MPS 406705
2008 12 31.44109 10 40 45.52 +12 51 21.9   704 – Lincoln Laboratory ETS, New Mexico MPS 406705
